User: anonymous   Login
Location: Armidale
(30.5016°S, 151.6662°E)
Time: 12:45:50
(UTC+10:00)
Language:

UKube-1 - Orbit

View from above orbital plane
View from above orbital plane
View from above satellite
View from above satellite

Ground track
Ground track

The orbit data is extracted from the following two-line orbital elements,

1 40074U 14037F   21216.83955413  .00000283  00000-0  40622-4 0  9991
2 40074  98.4250  75.3423 0003265 223.9238 136.1726 14.84596360383088
Epoch (UTC): 04 August 2021 20:08:57
Eccentricity: 0.0003265
inclination: 98.4250°
perigee height: 612 km
apogee height: 617 km
right ascension of ascending node: 75.3423°
argument of perigee: 223.9238°
revolutions per day: 14.84596360
mean anomaly at epoch: 136.1726°
orbit number at epoch: 38308

The dashed part of the orbit path shows where the satellite is in the earth's shadow,  

DLR